NOAA 16 DEB

Satellite information

Favourite Embed

Satellite Type and Status

DEBRISIN ORBIT

Key statistics

Satellite NOAA 16 DEB at a glance.

Uptime

9215

Days in orbit

Revolutions

≈ 14.3

Per day

Orbit

SSO

Sun Synchronous Orbit

Inclination

98.9

Latest

Satellite identification and parameters

Extended collection of information and parameters for NOAA 16 DEB.

Object identification

Identified? True

Debris? True

Object name: NOAA 16 DEB

International designator: 2000-055TY

Object number (NORAD): 42428

Object ID (CCSDS): 42428

Country: UNITED STATES OF AMERICA (US)

Current information (Y/N): Y

RCS size: SMALL

Orbital parameters

Period: 100.864 minutes

Inclination: 98.9491 deg

SMA: 7177.682 km

Apoapsis: 817.132 km

Periapsis: 781.963 km

RAAN: 118.9377 deg

Eccentricy: 0.00244983

Argument of periapsis: 56.7625 deg

Mean anomaly: 303.5899 deg

Mean motion: 14.27665295 rev/day

Mean motion (dot): 0.00003266 rev/day2

B* drag term: 0.0013391908 1/REarth

Two-line elements (TLE)

Creation date: Dec. 11, 2025, 10:54 a.m.

Reference frame: TEME

Reference center: EARTH

Epoch: Dec. 11, 2025, 4:31 a.m. UTC

TLE line 0: 0 NOAA 16 DEB

TLE line 1: 1 42428U 00055TY 25345.18887723 .00003266 00000-0 13392-2 0 9990

TLE line 2: 2 42428 98.9491 118.9377 0024498 56.7625 303.5899 14.27665295463957

Live tracking on map

Real-time ground track for satellite NOAA 16 DEB.

In-orbit conjunctions

A list of the most updated potential collisions computed for object NOAA 16 DEB.

Target Orbit TCA Probability of collision Miss distance Type
FENGYUN 1C SSO 2025-08-08 16:00:04 0.0001182457 848.0 (m) PAYLOAD
COSMOS 2251 DEB LEO 2025-08-04 23:50:28 0.0002709269 147.0 (m) DEBRIS
PSLV R/B SSO 2025-04-01 16:00:54 0.0001719534 252.0 (m) ROCKET BODY
BPA 1/SL-24 R/B SSO 2024-11-17 01:58:51 0.0001164422 332.0 (m) ROCKET BODY
CZ-4 DEB SSO 2024-09-26 03:37:54 0.0006005627 765.0 (m) DEBRIS

Associated space launch

The NOAA K, L and M POES satellites begin the fifth generation of improved environmental monitoring in support of NOAA missions. The instrument payload has significant improvements and additions/deletions. The instrument changes have effected the spacecraft subsystems and data formats.

NOAA 16 DEB was lifted into orbit during the mission ‘Titan II SLV | NOAA 16’, on board a Titan II SLV space rocket.

The launch took place on Sept. 21, 2000, 10:22 a.m. from Space Launch Complex 4W.

For more information about the launch, click the button.

Launch to space Titan II SLV | NOAA 16
Titan II SLV | NOAA 16

Agency: N/A

Status: Launch Successful

Launch date: Sept. 21, 2000, 10:22 a.m. UTC

Rocket: Titan II SLV

Launch pad: Space Launch Complex 4W

Location: Vandenberg SFB, CA, USA

...

Latest news about this satellite

There are no fresh news available about this satellite. Check back as we update our databases every day.


Newsletter sign-up

Weekly statistics, charts and insights to help you stay on top of the space industry.